Plattsmouth, NE

12:59 AM CDT on April 21, 2018 (GMT -0500)
Plattsmouth Municipal

Weather History for KPMV - September, 2012

Change the Weather History Date:

Saturday, September 1, 2012

  Actual Average (KOFF) Record (KOFF)
Temperature  
Mean Temperature 79 °F -  
Max Temperature 90 °F 82 °F 95 °F (2011)
Min Temperature 68 °F 62 °F 53 °F (2005)
Cooling Degree Days 14    
Growing Degree Days 29 (Base 50)    
Moisture  
Dew Point 66 °F    
Average Humidity 68    
Maximum Humidity 93    
Minimum Humidity 37    
Precipitation  
Precipitation 0.00 in - - ()
Sea Level Pressure  
Sea Level Pressure 29.99 in    
Wind  
Wind Speed 4 mph (NNE)    
Max Wind Speed 12 mph    
Max Gust Speed 18 mph    
Visibility 10 miles    
Events      
Averages and records for this station are not official NWS values.
T = Trace of Precipitation, MM = Missing Value Source: NWS Daily Summary

Daily Weather History Graph

Daily Weather History Graph

Search for Another Location

Airport or City:

Astronomy

Sep. 01, 2012 Rise Set
Actual Time 6:50 AM CDT 7:55 PM CDT
Civil Twilight 6:22 AM CDT 8:23 PM CDT
Nautical Twilight 5:49 AM CDT 8:56 PM CDT
Astronomical Twilight 5:13 AM CDT 9:31 PM CDT
Moon 8:11 PM CDT (9/1) 8:00 AM CDT (9/1)
Length of Visible Light 14h 00m
Length of Day
13h 04m
Full, 99% of the Moon is Illuminated
Sep 1
Full
Sep 8
Last Quarter
Sep 15
New
Sep 22
First Quarter
Sep 29
Full

Hourly Weather History & Observations

Time (CDT) Temp. Heat Index Dew Point Humidity Pressure Visibility Wind Dir Wind Speed Gust Speed Precip Events Conditions
12:15 AM 71.4 °F - 66.2 °F 84% 30.00 in 10.0 mi Calm Calm - N/A   Clear
12:35 AM 72.0 °F - 65.7 °F 80% 30.00 in 10.0 mi NW 3.5 mph - N/A   Clear
12:55 AM 70.7 °F - 65.8 °F 85% 30.00 in 10.0 mi NNW 4.6 mph - N/A   Clear
1:15 AM 71.6 °F - 65.5 °F 81% 30.00 in 10.0 mi NNW 3.5 mph - N/A   Clear
1:35 AM 71.6 °F - 66.0 °F 82% 30.00 in 10.0 mi NNW 3.5 mph - N/A   Clear
1:55 AM 70.7 °F - 66.2 °F 86% 29.99 in 10.0 mi NNW 3.5 mph - N/A   Clear
2:15 AM 70.5 °F - 66.2 °F 86% 30.00 in 10.0 mi Calm Calm - N/A   Clear
2:35 AM 71.2 °F - 66.6 °F 85% 29.99 in 10.0 mi NNW 3.5 mph - N/A   Clear
2:55 AM 71.1 °F - 66.6 °F 86% 29.99 in 10.0 mi NNW 3.5 mph - N/A   Clear
3:15 AM 70.3 °F - 66.9 °F 89% 29.99 in 10.0 mi Calm Calm - N/A   Clear
3:35 AM 69.8 °F - 66.6 °F 89% 30.00 in 10.0 mi NNW 3.5 mph - N/A   Clear
3:55 AM 69.8 °F - 66.6 °F 89% 29.99 in 10.0 mi NNW 3.5 mph - N/A   Clear
4:15 AM 69.8 °F - 66.9 °F 91% 30.00 in 10.0 mi NNW 4.6 mph - N/A   Clear
4:35 AM 69.4 °F - 66.7 °F 91% 30.00 in 10.0 mi NNW 3.5 mph - N/A   Clear
5:15 AM 69.3 °F - 66.7 °F 92% 30.00 in 10.0 mi NNW 3.5 mph - N/A   Clear
5:35 AM 69.3 °F - 67.1 °F 93% 30.00 in 10.0 mi NNW 3.5 mph - N/A   Clear
5:55 AM 69.1 °F - 66.9 °F 93% 30.00 in 10.0 mi Calm Calm - N/A   Clear
6:15 AM 69.1 °F - 67.1 °F 93% 30.01 in 10.0 mi NNW 3.5 mph - N/A   Clear
6:35 AM 68.9 °F - 66.7 °F 93% 30.01 in 7.0 mi NNW 3.5 mph - N/A   Clear
6:55 AM 68.5 °F - 66.6 °F 93% 30.01 in 10.0 mi NNW 3.5 mph - N/A   Clear
7:15 AM 68.7 °F - 66.7 °F 93% 30.01 in 7.0 mi Calm Calm - N/A   Clear
7:35 AM 68.9 °F - 66.7 °F 93% 30.02 in 7.0 mi NNW 3.5 mph - N/A   Clear
7:55 AM 69.1 °F - 66.9 °F 93% 30.02 in 10.0 mi NNW 3.5 mph - N/A   Clear
8:15 AM 69.3 °F - 67.1 °F 93% 30.03 in 7.0 mi NNW 3.5 mph - N/A   Clear
8:35 AM 70.7 °F - 67.8 °F 91% 30.02 in 10.0 mi North 3.5 mph - N/A   Clear
8:55 AM 73.2 °F - 68.9 °F 86% 30.03 in 10.0 mi North 3.5 mph - N/A   Clear
9:15 AM 75.9 °F - 69.4 °F 80% 30.03 in 10.0 mi North 3.5 mph - N/A   Clear
9:35 AM 77.0 °F - 68.5 °F 75% 30.03 in 10.0 mi North 9.2 mph - N/A   Clear
9:55 AM 76.3 °F - 68.2 °F 76% 30.03 in 10.0 mi North 4.6 mph - N/A   Clear
10:15 AM 76.6 °F - 68.9 °F 77% 30.03 in 10.0 mi NNW 5.8 mph - N/A   Clear
10:35 AM 78.3 °F - 69.3 °F 74% 30.03 in 10.0 mi NNW 6.9 mph - N/A   Clear
10:55 AM 78.4 °F - 68.9 °F 72% 30.04 in 10.0 mi NNW 6.9 mph - N/A   Clear
11:15 AM 79.5 °F - 69.3 °F 71% 30.04 in 10.0 mi NNW 5.8 mph - N/A   Clear
11:35 AM 80.1 °F 82.8 °F 68.7 °F 68% 30.03 in 10.0 mi NNW 4.6 mph - N/A   Clear
11:55 AM 81.9 °F 85.2 °F 69.3 °F 65% 30.03 in 10.0 mi North 3.5 mph - N/A   Clear
12:15 PM 83.3 °F 86.4 °F 68.0 °F 60% 30.03 in 10.0 mi NNE 6.9 mph - N/A   Clear
12:35 PM 84.4 °F 87.6 °F 68.4 °F 58% 30.02 in 10.0 mi NE 9.2 mph - N/A   Clear
12:55 PM 86.0 °F 89.7 °F 68.7 °F 56% 30.02 in 10.0 mi NE 6.9 mph - N/A   Scattered Clouds
1:15 PM 87.8 °F 91.4 °F 68.0 °F 52% 30.01 in 10.0 mi North 8.1 mph - N/A   Scattered Clouds
1:35 PM 88.0 °F 90.0 °F 65.7 °F 47% 30.01 in 10.0 mi NNE 11.5 mph 16.1 mph N/A   Clear
1:55 PM 88.5 °F 90.1 °F 64.8 °F 45% 30.00 in 10.0 mi NNE 8.1 mph 16.1 mph N/A   Scattered Clouds
2:15 PM 89.4 °F 90.8 °F 64.0 °F 43% 29.99 in 10.0 mi NNE 9.2 mph 18.4 mph N/A   Scattered Clouds
2:35 PM 89.6 °F 90.8 °F 63.9 °F 42% 29.99 in 10.0 mi North 8.1 mph - N/A   Clear
2:55 PM 89.6 °F 90.1 °F 62.6 °F 40% 29.99 in 10.0 mi NE 8.1 mph 16.1 mph N/A   Clear
3:15 PM 90.0 °F 90.6 °F 62.4 °F 40% 29.98 in 10.0 mi NE 9.2 mph - N/A   Clear
3:35 PM 90.5 °F 91.1 °F 62.1 °F 39% 29.97 in 10.0 mi North 9.2 mph - N/A   Clear
3:55 PM 90.5 °F 90.7 °F 61.7 °F 38% 29.96 in 10.0 mi NNE 6.9 mph - N/A   Scattered Clouds
4:15 PM 90.5 °F 91.1 °F 62.1 °F 39% 29.96 in 10.0 mi NNE 6.9 mph 17.3 mph N/A   Clear
4:35 PM 90.3 °F 90.5 °F 61.3 °F 38% 29.96 in 10.0 mi NE 11.5 mph - N/A   Clear
4:55 PM 90.5 °F 90.4 °F 61.2 °F 37% 29.96 in 10.0 mi NE 11.5 mph - N/A   Clear
5:15 PM 90.0 °F 90.3 °F 62.2 °F 39% 29.96 in 10.0 mi NNE 5.8 mph 17.3 mph N/A   Clear
5:35 PM 89.8 °F 89.7 °F 61.2 °F 38% 29.96 in 10.0 mi NNE 5.8 mph - N/A   Clear
5:55 PM 89.1 °F 89.3 °F 62.1 °F 40% 29.95 in 10.0 mi ENE 8.1 mph - N/A   Clear
6:15 PM 88.7 °F 89.1 °F 61.9 °F 41% 29.95 in 10.0 mi ENE 9.2 mph - N/A   Clear
6:35 PM 87.8 °F 88.2 °F 62.2 °F 42% 29.95 in 10.0 mi NE 9.2 mph - N/A   Clear
6:55 PM 86.7 °F 87.5 °F 62.8 °F 45% 29.95 in 10.0 mi NE 4.6 mph - N/A   Clear
7:15 PM 85.3 °F 86.1 °F 62.8 °F 47% 29.95 in 10.0 mi NE 4.6 mph - N/A   Clear
7:35 PM 83.3 °F 84.3 °F 63.0 °F 50% 29.94 in 10.0 mi ENE 3.5 mph - N/A   Clear
7:55 PM 81.9 °F 83.2 °F 63.5 °F 54% 29.94 in 10.0 mi ENE 4.6 mph - N/A   Clear
8:15 PM 80.8 °F 82.4 °F 64.2 °F 57% 29.95 in 10.0 mi East 3.5 mph - N/A   Clear
8:35 PM 79.2 °F - 64.6 °F 61% 29.95 in 10.0 mi East 5.8 mph - N/A   Clear
8:55 PM 78.3 °F - 64.4 °F 62% 29.96 in 10.0 mi East 5.8 mph - N/A   Clear
9:15 PM 77.9 °F - 64.9 °F 64% 29.97 in 10.0 mi East 5.8 mph - N/A   Clear
9:35 PM 77.4 °F - 65.3 °F 66% 29.97 in 10.0 mi East 5.8 mph - N/A   Clear
9:55 PM 77.2 °F - 65.5 °F 67% 29.98 in 10.0 mi East 5.8 mph - N/A   Clear
10:15 PM 75.9 °F - 65.5 °F 70% 29.98 in 10.0 mi East 5.8 mph - N/A   Clear
10:35 PM 75.6 °F - 65.5 °F 71% 29.98 in 10.0 mi East 11.5 mph - N/A   Clear
10:55 PM 74.7 °F - 64.4 °F 70% 29.99 in 10.0 mi East 6.9 mph - N/A   Clear
11:15 PM 73.4 °F - 63.7 °F 71% 29.99 in 10.0 mi East 6.9 mph - N/A   Clear
11:55 PM 72.0 °F - 62.6 °F 72% 29.99 in 10.0 mi East 6.9 mph - N/A   Clear